Overview Statistics Trail Chart Weather Telemetry Raw packets
 

This is the latest recevied weather packets stored in our database for station/object IU5GBO-13. If no packets are shown the sender has not sent any weather packets the latest 10 day(s).

<< 1 2 3 4 5 >>
Time Temp. Humidity Pressure Rain* Wind** Luminosity Snow
1778051180 16.67° C 78% 1012.5 hPa - - - -
1778050580 16.67° C 80% 1012.5 hPa - - - -
1778049980 16.67° C 79% 1012.6 hPa - - - -
1778049379 16.67° C 78% 1012.6 hPa - - - -
1778048780 16.67° C 76% 1012.6 hPa - - - -
1778048180 16.67° C 76% 1012.4 hPa - - - -
1778047579 16.67° C 80% 1012.6 hPa - - - -
1778046980 16.67° C 82% 1012.6 hPa - - - -
1778046379 16.67° C 83% 1012.7 hPa - - - -
1778045789 16.67° C 83% 1012.5 hPa - - - -
1778045179 16.11° C 84% 1012.5 hPa - - - -
1778044579 16.67° C 85% 1012.2 hPa - - - -
1778043980 16.11° C 86% 1012.2 hPa - - - -
1778043379 16.11° C 85% 1012.2 hPa - - - -
1778042780 16.11° C 85% 1012.1 hPa - - - -
1778042194 16.11° C 85% 1012.1 hPa - - - -
1778041579 16.11° C 85% 1012 hPa - - - -
1778041268 16.11° C 85% 1012 hPa - - - -
1778040380 16.11° C 85% 1012.2 hPa - - - -
1778039825 16.11° C 84% 1012.1 hPa - - - -
1778039180 16.11° C 84% 1012.1 hPa - - - -
1778038007 15.56° C 84% 1011.8 hPa - - - -
1778037382 15.56° C 83% 1011.9 hPa - - - -
1778035629 15.56° C 83% 1012.4 hPa - - - -
1778034980 15.56° C 83% 1012.5 hPa - - - -

* Rain since midnight (hover to see other rain measurements)
** Current wind speed in m/s (hover to see current wind gust speed)